* Astronomy

Members Login
Username 
 
Password 
    Remember Me  
Post Info TOPIC: Asteroid 2011 WG44


L

Posts: 131433
Date:
Asteroid 2011 WG44
Permalink  
 


Orbital elements:
2011 WG44                                                Earth MOID = 0.2002 AU
Epoch 2011 Aug. 27.0 TT = JDT 2455800.5                 MPC
M 296.97279              (2000.0)            P               Q
n   0.58670971     Peri.  201.31929     +0.21596462     -0.95381726
a   1.4131465      Node   236.77280     +0.92804921     +0.26697872
e   0.1647248      Incl.   14.45351     +0.30345337     -0.13767718
P   1.68           H   22.7           G   0.15           U   8

MPEC 2011 - W62



__________________
Page 1 of 1  sorted by
 
Quick Reply

Please log in to post quick replies.



Create your own FREE Forum
Report Abuse
Powered by ActiveBoard